Theta_e
339 341 343 347 349 348 348 348 348 347 348 349 350 350 350 349 350 349 349 350 349 349 349 349 349 350 349 349 348 348 347 348 348 348 348 348 346 345 347 346 347 347 346 347 346 346 346 346 346 346 346 346 347 346 346 346 345 345 346 347 346 346 346 346 346 347 346 346 346 345 345 343 342 344 342 340 341 342 341 342 341 341 343 344 342
338 341 343 345 348 347 348 348 349 349 349 350 350 350 350 350 350 350 350 350 350 349 350 349 348 349 349 349 349 349 347 348 347 346 347 346 345 346 347 347 348 347 346 346 346 346 346 346 347 347 345 346 346 346 346 346 346 346 347 347 346 346 346 345 346 346 346 347 346 346 345 344 344 342 343 342 342 343 342 342 345 342 343 342 341
341 342 342 347 347 348 348 347 347 349 350 350 350 350 349 349 349 349 349 349 348 349 349 349 348 347 347 348 348 348 348 347 347 348 347 346 346 346 346 345 347 347 346 346 346 346 345 346 346 346 346 346 346 346 346 346 346 346 346 347 346 346 346 346 346 346 346 346 346 345 345 346 344 342 341 342 343 344 345 344 344 344 342 342 341
340 340 340 344 346 348 349 349 350 347 347 348 348 348 348 348 347 348 348 348 348 348 349 348 348 348 348 348 348 348 347 346 346 347 347 346 346 347 347 346 346 345 345 346 345 346 345 345 345 345 345 346 345 345 345 345 346 345 345 345 345 346 346 346 346 346 346 346 346 345 344 339 340 346 341 341 343 343 343 343 343 343 342 342 342
340 340 339 341 343 347 347 347 346 346 348 348 347 347 347 347 346 346 346 347 347 349 349 348 348 348 348 348 348 347 347 347 347 348 347 346 346 346 346 346 346 345 345 345 345 345 345 344 345 345 345 345 345 345 345 345 344 344 345 345 345 346 346 346 346 345 345 346 346 341 338 339 339 343 343 342 343 343 343 343 343 342 342 341 341
337 339 339 339 342 345 345 346 346 345 346 346 345 346 347 346 345 347 347 347 347 347 347 348 348 347 347 347 347 347 346 346 346 346 346 346 346 345 346 346 346 346 346 345 345 345 345 344 345 345 345 344 344 345 346 345 344 344 345 345 345 346 346 346 346 345 345 344 342 337 336 339 340 342 346 341 342 343 343 343 343 343 342 341 341
339 339 339 340 341 345 346 346 345 345 343 345 346 346 345 346 347 346 346 347 347 347 347 347 347 347 347 346 345 345 346 346 345 346 345 345 345 345 345 345 345 345 344 346 345 345 345 345 345 346 345 344 345 345 345 345 344 344 344 345 345 346 346 345 344 344 345 339 335 335 336 340 340 343 347 343 342 342 342 343 342 342 341 341 341
339 339 337 339 342 344 344 344 344 343 345 345 346 347 347 347 347 347 347 346 346 345 346 346 346 346 346 346 345 346 345 346 346 346 345 345 345 345 345 345 345 345 345 344 344 344 344 344 345 345 345 345 345 344 344 344 345 344 344 345 345 346 344 344 344 344 343 338 336 335 336 339 339 340 345 343 341 342 342 342 342 342 342 342 341
337 338 338 339 341 344 342 342 342 344 344 344 346 346 346 347 347 345 346 346 345 345 345 345 345 346 346 345 346 346 346 346 345 345 345 345 345 345 345 344 344 345 344 345 345 344 344 344 344 344 344 344 343 343 344 344 344 345 342 344 345 344 342 343 343 343 339 337 337 336 337 340 339 338 346 343 342 342 340 341 340 338 341 341 342
338 338 339 339 340 342 344 344 344 344 343 345 345 345 347 346 345 345 346 346 347 346 346 345 345 345 345 345 345 345 345 346 346 345 345 345 344 343 344 345 345 344 345 345 345 345 344 344 344 342 342 343 344 344 344 344 344 344 344 345 345 344 342 341 342 342 338 338 337 337 339 345 341 339 343 342 341 340 339 341 339 338 337 341 341
338 337 338 339 341 341 342 344 344 345 345 346 346 346 346 345 345 345 345 346 345 346 345 345 345 345 345 345 345 345 345 346 345 344 344 343 343 343 343 343 344 344 344 345 345 345 345 345 345 344 344 343 342 343 343 343 344 344 344 344 345 344 342 341 340 336 336 336 339 338 342 345 338 339 340 340 341 341 341 341 340 339 339 340 340
337 337 339 342 343 343 343 344 344 345 345 345 345 344 345 344 344 345 346 345 346 344 344 344 345 345 345 345 345 344 344 344 344 345 345 344 343 342 342 343 344 344 344 344 344 345 345 345 345 345 344 344 344 344 344 343 342 342 343 343 344 344 343 342 336 336 336 337 340 340 339 340 340 337 337 338 340 341 341 340 340 340 339 340 340
335 337 338 339 339 343 345 345 345 345 345 345 344 344 344 344 345 344 344 345 345 344 343 343 345 344 345 345 344 344 344 344 344 344 343 342 342 343 344 345 343 342 343 343 344 344 345 345 345 345 345 345 344 344 344 343 343 343 342 343 343 343 343 343 334 335 337 338 340 341 338 339 340 337 336 339 339 341 340 339 338 339 339 339 339
336 337 337 338 341 344 345 345 344 344 343 343 343 343 344 346 344 344 344 345 344 345 344 344 344 344 345 345 344 344 344 344 343 343 342 343 343 343 344 340 339 340 340 341 342 343 344 345 345 346 345 345 345 346 345 344 343 344 344 342 342 343 344 341 339 334 337 338 339 342 338 341 341 340 339 339 340 340 339 339 339 338 337 338 337
336 336 337 336 338 341 345 344 343 343 343 342 342 342 344 344 344 344 344 344 344 344 344 344 344 344 344 344 344 344 343 343 343 342 342 343 341 340 338 338 339 340 340 341 341 341 342 344 345 346 346 345 346 346 346 346 343 343 342 343 343 343 345 335 336 335 336 340 339 341 340 341 341 341 340 339 341 340 339 339 338 338 338 337 339
335 334 336 336 337 338 341 343 343 343 342 344 344 344 343 343 343 345 344 344 344 344 344 344 344 343 344 344 344 344 343 342 342 342 341 339 336 337 339 339 340 341 341 341 341 342 341 340 340 339 341 344 346 346 347 347 346 345 345 344 344 344 343 340 335 337 339 340 341 342 340 341 341 341 340 341 341 341 340 339 338 337 337 338 339
335 336 335 334 336 336 337 340 341 342 341 341 341 341 342 342 343 343 343 343 342 343 344 344 344 344 343 343 343 343 343 344 342 339 338 337 338 338 338 340 340 341 341 342 341 341 340 340 339 338 338 341 342 344 346 347 346 346 348 344 344 343 344 339 335 335 340 342 340 341 341 345 342 341 341 340 341 340 340 340 339 339 337 338 338
333 334 334 334 335 335 336 336 335 337 336 340 341 341 341 341 340 342 342 342 342 343 343 342 342 342 342 341 342 343 342 341 338 337 337 337 338 338 338 340 340 340 341 341 342 341 340 339 339 337 337 338 342 344 345 347 347 347 347 347 345 345 343 341 334 335 339 342 338 343 342 343 343 342 342 341 341 341 341 341 340 339 340 339 339
332 332 333 333 333 334 334 334 335 334 334 334 334 339 341 340 339 340 341 343 343 342 342 342 342 341 339 337 338 339 340 340 339 337 337 337 338 338 339 339 339 340 339 339 340 340 339 338 338 338 336 334 335 337 339 340 343 346 348 349 344 346 342 337 334 334 338 340 339 338 343 345 344 341 341 342 340 342 342 342 341 340 340 339 339
330 331 331 332 333 334 333 333 333 332 333 333 333 334 341 340 340 340 340 340 340 340 340 342 342 340 338 337 336 333 333 334 337 337 339 338 338 338 338 337 337 337 337 337 337 338 338 337 337 336 335 334 333 333 335 337 338 339 347 349 347 341 334 333 333 333 334 341 342 338 344 344 343 342 341 341 342 343 343 342 342 341 340 340 339
329 330 330 331 333 333 332 331 333 334 336 336 335 336 337 336 337 338 338 338 337 336 336 335 335 337 335 335 334 329 327 326 329 331 335 336 337 337 337 337 335 335 335 336 335 335 336 336 335 334 334 332 330 328 330 333 340 341 346 348 343 333 332 333 333 337 337 338 340 339 344 343 342 342 342 342 341 341 341 341 342 341 341 340 339
327 328 329 331 332 333 333 332 332 334 334 336 336 333 331 330 325 326 331 330 332 331 329 326 329 323 330 325 324 328 325 328 328 332 329 333 333 335 335 335 335 333 333 333 333 332 332 333 332 332 332 330 327 317 319 325 335 347 350 344 334 333 332 333 334 337 337 338 341 344 344 343 342 342 342 342 342 341 341 340 341 342 342 341 340
326 327 329 330 332 333 333 334 332 332 332 332 333 332 327 325 322 322 325 328 329 326 322 324 320 321 322 322 324 320 322 325 329 330 329 329 328 333 333 332 332 332 330 329 330 331 329 329 330 329 329 327 317 317 316 316 318 335 341 335 333 332 333 334 334 335 338 343 340 343 343 341 340 341 341 341 341 341 341 341 342 342 342 341 341
325 327 329 330 333 332 331 332 329 327 326 326 327 326 324 322 321 320 320 320 320 322 321 321 320 320 320 321 320 321 319 319 327 327 325 319 319 325 328 327 327 328 329 321 323 326 324 324 325 325 321 320 317 317 318 317 317 319 328 333 332 331 333 335 336 335 336 341 342 342 342 340 339 339 339 338 338 339 341 341 342 342 341 341 339
327 328 330 330 331 331 327 324 324 325 325 327 324 322 321 320 320 319 319 319 319 319 319 320 321 320 320 320 319 320 317 317 317 317 317 317 316 316 316 316 316 316 325 315 316 315 317 315 314 317 314 317 316 316 318 317 318 318 319 326 331 332 334 335 336 336 335 336 343 342 341 340 337 335 334 334 333 335 338 339 341 342 341 340 339
329 327 328 330 329 328 324 321 321 321 323 324 324 326 321 319 319 320 318 318 318 318 318 319 320 320 320 320 319 316 316 316 316 316 316 316 316 315 315 315 315 315 320 315 315 315 314 314 314 314 314 316 315 316 317 319 316 316 318 321 328 330 332 335 336 336 334 335 341 342 341 339 336 333 331 330 330 331 334 336 336 337 337 337 337
325 327 328 328 324 321 320 319 319 319 320 321 322 322 322 322 323 324 319 318 317 317 317 318 319 319 320 322 316 316 316 316 316 316 315 316 315 314 314 315 314 314 316 314 314 314 314 313 313 313 313 314 315 314 315 315 316 315 319 321 326 329 331 334 335 335 334 332 338 342 342 339 338 335 333 330 329 330 332 334 335 334 333 334 335
326 326 325 322 321 319 320 319 319 319 319 320 320 319 319 320 323 323 320 325 318 317 316 317 319 319 320 320 320 315 315 315 315 315 315 316 316 315 314 314 314 314 315 315 313 313 313 313 313 312 312 312 313 314 314 314 315 315 317 320 325 328 330 332 334 332 330 329 332 340 339 338 337 338 334 333 332 331 332 332 332 331 331 331 331
325 322 320 320 319 321 318 317 318 318 318 319 318 318 318 318 318 318 320 325 316 316 317 317 317 319 318 318 318 315 314 315 314 314 315 315 315 315 314 313 313 313 313 313 314 313 313 312 312 311 311 311 312 314 313 313 314 315 315 316 316 318 324 328 330 330 329 329 329 334 338 336 335 334 335 335 334 333 330 330 329 329 329 329 329
322 319 318 317 317 317 317 317 317 317 317 317 317 317 316 316 316 317 319 320 316 317 317 316 316 316 316 317 319 315 314 314 314 314 314 314 314 314 314 313 313 313 312 312 314 313 312 312 311 310 311 311 311 313 312 311 311 313 314 314 314 314 315 319 324 325 322 322 323 326 334 331 331 332 333 335 336 334 333 329 329 330 329 329 329
319 317 317 318 322 318 318 319 320 322 317 316 316 316 317 316 318 315 316 315 316 317 317 316 316 317 317 317 318 320 316 315 315 314 314 313 313 313 313 313 312 312 312 312 313 313 312 311 310 309 309 310 311 312 311 310 309 309 310 309 309 309 309 311 310 309 309 313 317 320 319 323 327 329 330 331 333 334 333 332 329 329 329 329 330
316 316 316 317 317 317 317 318 318 320 319 318 320 317 316 317 316 315 315 316 318 315 315 317 319 316 317 317 318 318 321 315 316 316 314 313 312 311 311 311 310 311 312 311 312 312 312 310 310 310 308 310 311 311 310 308 307 307 306 306 306 305 304 305 304 304 305 307 308 311 312 311 317 322 325 328 328 329 331 330 329 328 328 329 329
316 316 317 317 315 315 315 315 315 316 315 315 315 315 315 315 315 315 316 317 315 315 315 315 315 316 316 316 317 319 318 315 315 315 318 312 312 311 310 311 310 310 311 312 311 310 310 309 307 309 308 307 309 310 309 307 306 306 305 305 305 304 303 303 304 303 303 304 305 306 307 309 307 312 317 323 326 327 329 331 329 327 326 326 326
316 316 316 316 318 318 318 316 316 315 316 315 316 315 315 318 317 313 317 314 314 314 316 314 318 316 317 316 317 318 316 315 314 314 313 312 311 310 310 309 309 309 310 311 310 309 307 307 307 304 308 305 306 309 307 305 305 305 305 304 304 304 303 302 303 303 303 303 304 305 305 306 306 306 307 314 323 327 331 332 330 330 330 330 331
319 315 316 317 318 319 319 316 318 315 316 314 314 316 314 313 312 312 313 314 313 312 312 313 313 315 316 317 318 319 316 316 315 314 313 312 311 310 309 308 309 309 308 310 309 309 307 306 306 303 303 304 304 308 307 305 303 303 304 305 304 303 304 303 303 302 302 303 303 303 305 305 306 307 305 305 313 325 327 330 330 330 329 329 331
316 316 320 318 316 315 315 314 314 313 314 316 312 313 313 313 316 320 312 312 313 313 313 313 314 314 315 316 318 320 317 317 316 314 313 312 311 310 309 309 308 307 306 307 309 308 307 305 306 303 302 302 304 304 306 304 303 302 303 303 304 306 304 303 303 302 302 302 302 303 303 305 306 306 307 305 306 312 320 321 323 324 324 324 325
317 318 317 317 317 316 315 312 312 312 312 312 311 311 312 312 313 314 312 312 312 312 312 314 314 315 315 315 317 319 316 316 317 315 314 312 311 310 310 308 307 305 304 305 306 308 307 305 304 306 302 301 302 303 305 304 302 302 302 302 303 304 303 304 303 303 302 301 301 301 302 303 305 307 303 303 303 304 310 315 315 317 319 319 319
320 317 316 316 314 313 313 313 312 312 312 312 311 311 311 311 310 312 319 312 312 312 312 313 314 314 315 316 316 319 317 316 316 316 315 315 312 310 309 308 307 305 304 303 304 306 305 304 302 303 304 302 302 302 303 304 301 301 301 301 302 302 303 303 304 305 302 301 301 300 301 302 302 302 302 303 302 302 302 305 309 309 313 314 314
317 316 316 316 317 317 317 316 313 312 312 312 312 311 311 311 311 311 312 312 312 314 312 313 313 315 315 316 318 318 319 315 316 316 314 312 311 310 309 308 307 304 303 302 302 305 304 304 303 301 304 303 302 302 302 304 301 300 300 301 301 301 303 303 303 302 301 301 302 302 300 301 301 301 303 302 301 301 301 302 300 300 300 311 311
316 317 318 316 315 314 312 313 312 312 311 310 310 309 309 311 309 309 310 310 312 318 314 313 314 315 317 316 316 316 318 317 315 316 314 312 310 309 308 307 306 304 303 302 301 302 302 301 303 303 300 302 303 302 302 304 303 302 303 302 302 301 300 301 300 300 301 300 300 301 300 300 301 301 301 301 301 300 301 301 302 299 299 302 308
316 316 314 314 314 313 313 311 313 312 311 309 309 308 308 308 307 307 308 308 315 317 312 313 314 315 315 315 316 316 316 317 316 313 312 314 311 309 307 306 305 305 303 302 302 303 304 303 301 303 301 299 300 301 301 302 301 300 301 300 301 302 301 299 298 299 299 300 300 299 300 300 300 300 300 302 301 301 300 299 299 299 298 298 299
314 314 314 315 315 313 312 312 312 311 310 310 312 308 306 307 307 309 308 309 308 309 310 314 315 315 315 315 315 315 315 315 316 313 312 310 308 307 305 304 304 304 304 304 303 304 301 300 300 299 300 300 298 300 299 301 301 299 299 299 300 300 302 299 298 298 298 298 299 298 299 298 298 299 301 300 300 300 299 299 299 299 298 298 298
315 313 313 313 313 313 313 314 313 311 310 312 310 308 309 309 308 307 309 310 309 311 311 315 315 314 314 315 315 314 313 312 312 313 309 308 307 306 305 304 303 305 301 300 300 300 300 300 300 299 297 299 300 301 300 301 299 299 300 299 296 298 301 299 299 298 297 297 298 297 297 297 297 298 299 298 299 300 299 299 298 299 298 298 298
314 312 311 311 312 315 313 313 313 311 311 315 315 310 312 310 309 310 310 310 313 317 313 313 314 314 313 314 314 313 312 311 310 309 308 307 306 305 304 303 303 304 301 300 300 300 300 299 300 301 299 295 296 298 301 300 298 299 298 296 295 295 295 294 296 297 298 296 296 296 297 296 296 297 298 297 297 299 300 299 299 299 299 298 298
312 311 310 312 313 312 313 312 311 311 311 319 313 313 313 310 310 311 311 310 311 309 311 311 312 319 315 313 313 312 311 310 310 309 309 305 305 304 303 303 302 302 302 300 300 300 300 300 299 299 298 296 295 296 299 300 299 300 300 297 294 293 290 293 294 294 297 295 295 295 297 296 296 296 295 296 297 297 300 299 299 299 299 298 297
312 311 311 312 312 311 312 311 311 312 313 313 311 314 313 309 308 308 307 307 307 308 309 310 310 310 311 312 312 312 311 310 309 309 309 307 304 304 303 302 302 303 302 300 300 301 301 300 300 299 298 298 296 296 296 300 300 300 298 297 295 291 292 293 293 292 296 295 296 295 294 295 295 295 294 295 296 295 299 298 299 298 298 298 297
312 311 311 311 310 310 310 311 311 311 312 311 312 315 308 308 307 307 306 306 306 307 305 307 309 310 312 311 311 312 310 309 308 307 307 307 304 303 303 302 302 302 304 300 299 300 300 301 302 300 299 300 297 294 295 296 298 298 298 298 298 297 295 294 290 291 290 294 294 295 293 293 295 294 293 293 295 296 296 297 297 295 297 297 296
312 311 311 310 310 310 309 310 312 315 312 312 312 312 309 307 307 307 309 305 307 309 308 309 311 315 311 311 311 310 310 309 308 307 307 307 304 303 303 303 303 304 303 299 299 299 299 300 302 301 301 299 296 295 295 295 295 295 299 296 297 296 295 295 295 291 288 288 290 292 293 292 294 294 293 292 294 296 294 296 294 294 296 294 295
311 311 310 310 310 310 311 311 313 314 312 313 312 311 313 308 308 310 311 309 306 309 315 317 312 312 311 310 310 309 309 308 307 307 306 307 308 303 302 302 302 303 303 300 299 299 298 298 298 298 298 299 299 298 295 295 295 294 295 295 294 294 293 294 294 294 290 288 288 288 288 291 292 293 294 292 293 295 295 296 294 294 295 294 294
311 313 310 309 309 309 312 312 312 312 312 313 313 310 312 312 308 308 308 308 311 308 309 309 309 310 310 309 309 308 308 308 307 306 305 304 304 305 303 303 304 305 304 299 298 298 298 298 298 298 298 298 298 297 296 295 295 295 295 294 293 293 292 292 292 292 291 290 286 287 287 287 287 290 295 291 292 294 293 294 293 293 292 293 293
309 310 309 309 309 310 311 311 312 311 313 312 310 310 310 309 308 308 308 307 308 308 309 309 309 310 310 309 309 308 308 307 307 306 306 305 306 307 302 303 305 307 303 299 299 298 298 297 297 297 297 296 296 296 296 296 295 294 293 293 293 292 292 290 290 290 289 288 287 286 287 288 287 287 290 290 293 292 293 293 292 292 292 292 293
Wind_Speed
2 1 1 3 4 5 3 6 6 7 7 8 8 9 8 8 9 9 10 10 9 10 9 9 9 9 9 9 9 8 8 9 9 8 8 9 9 8 7 7 6 7 7 7 8 8 8 8 8 8 7 7 7 7 8 9 8 8 8 7 7 7 7 7 7 5 5 4 5 4 4 3 3 3 3 3 2 2 3 3 3 3 3 2 3
1 1 1 0 4 4 4 5 7 7 8 8 9 9 8 8 9 10 10 10 10 10 10 9 8 8 8 9 9 10 8 9 8 8 8 9 8 6 6 6 7 7 7 8 8 8 7 8 7 7 6 6 6 7 8 7 7 7 7 7 7 6 6 6 6 5 6 6 4 3 3 3 3 2 3 2 4 4 4 4 5 4 2 3 3
1 2 3 0 4 5 5 5 7 8 9 8 9 9 8 9 10 10 10 10 10 11 10 9 8 8 8 9 10 10 10 9 9 10 8 9 9 7 6 6 6 6 7 7 7 7 6 6 5 4 4 6 6 7 7 7 6 7 8 8 7 8 8 7 7 6 6 6 5 4 5 6 3 1 1 2 4 4 5 5 6 6 3 4 3
2 3 3 3 5 7 7 7 8 8 9 9 10 10 10 9 10 10 10 10 11 11 11 9 9 8 9 9 9 10 10 10 10 9 8 10 9 9 9 8 7 8 8 6 6 7 6 5 4 4 4 5 5 6 7 7 7 7 8 8 8 8 9 9 9 7 7 6 6 7 4 4 4 4 1 2 3 4 5 6 6 6 5 4 4
4 3 3 3 3 6 8 8 9 7 11 10 9 10 8 8 9 9 10 11 10 11 11 10 9 9 9 9 9 10 10 10 10 10 10 10 12 10 9 8 8 7 7 5 5 4 5 3 4 4 4 4 5 7 7 7 7 7 7 7 8 8 9 9 9 8 7 9 8 5 2 2 3 4 2 2 3 3 4 5 5 5 5 5 4
2 3 3 3 3 5 8 9 9 10 8 9 7 8 8 8 8 9 10 10 11 11 11 10 10 10 10 10 10 10 10 10 10 11 11 11 10 10 9 8 7 7 6 5 4 5 4 5 5 5 5 5 6 7 7 8 7 7 7 8 8 9 9 9 9 8 7 8 7 3 2 2 2 2 3 3 3 4 3 3 4 4 5 4 4
3 3 3 3 4 5 9 10 10 8 3 5 8 7 8 8 9 10 10 10 10 10 10 11 11 11 10 10 10 9 10 10 10 10 10 10 11 11 10 9 8 7 5 5 6 6 6 6 7 7 7 7 7 7 7 8 8 7 8 8 9 9 9 9 7 6 7 5 3 2 1 1 1 1 2 3 4 2 2 3 3 3 4 6 5
4 4 4 3 3 6 9 8 6 5 5 5 7 9 9 9 9 10 10 10 10 10 10 10 10 11 10 10 10 9 10 10 10 10 10 10 10 10 10 9 9 8 8 7 7 8 8 7 7 8 8 8 8 8 8 8 8 7 7 8 9 9 9 8 7 7 7 3 2 1 1 0 0 0 3 2 3 1 2 3 3 3 6 8 3
3 4 2 3 3 8 6 3 3 6 5 5 8 9 10 9 10 10 10 10 10 10 10 10 10 10 10 9 9 10 10 10 10 10 10 10 10 10 10 10 9 10 9 9 8 8 8 8 7 8 9 9 8 8 8 8 8 8 8 9 10 10 10 9 8 8 5 4 3 1 1 0 0 1 3 2 0 2 8 13 15 15 8 2 2
4 4 4 4 6 9 4 6 6 7 8 9 8 9 10 9 10 9 10 10 10 10 10 10 10 10 10 10 10 10 10 11 10 10 11 11 11 11 11 12 12 11 9 9 9 9 9 8 8 8 8 7 7 6 6 7 7 8 9 10 10 10 10 10 9 7 5 5 4 3 3 3 2 3 5 8 12 15 12 11 5 1 2 5 1
5 4 3 4 5 5 3 4 4 8 9 9 9 9 10 9 8 8 9 10 10 11 10 10 10 10 10 10 10 11 11 11 11 11 12 12 12 11 11 11 11 10 10 10 9 9 9 9 8 8 7 6 6 6 6 6 7 8 9 9 9 9 8 9 7 3 4 5 5 4 6 9 5 5 15 15 12 10 6 4 1 3 10 11 14
4 3 3 3 5 4 5 6 8 9 10 10 10 9 9 8 8 9 9 10 11 12 10 9 9 10 10 11 11 11 11 11 11 11 11 11 12 12 12 12 11 10 9 9 9 9 9 8 8 8 8 7 6 6 7 7 7 8 8 8 9 8 9 8 4 4 5 5 5 5 5 6 7 13 13 5 3 6 6 7 7 9 7 8 7
3 3 3 3 1 7 8 9 9 11 10 9 9 7 8 9 9 10 10 11 11 11 11 9 10 11 11 11 11 11 11 11 11 11 12 13 12 12 12 12 11 10 9 8 8 8 8 7 7 7 7 7 7 7 7 8 8 8 9 9 10 9 8 8 5 4 4 4 5 5 5 5 8 10 4 3 5 8 7 6 6 6 6 4 5
4 5 5 5 4 8 9 9 10 10 8 8 8 8 9 9 11 10 10 11 10 11 10 11 11 11 11 11 11 11 11 11 12 12 12 12 12 11 11 11 12 12 11 11 10 10 8 7 6 6 6 5 5 6 7 8 8 9 8 7 7 8 8 6 5 4 4 4 5 5 6 5 6 5 6 3 4 6 4 4 3 4 1 2 5
6 6 5 6 6 5 9 9 9 9 8 9 10 8 11 12 12 12 12 12 10 10 9 10 10 10 11 11 11 11 11 11 12 12 12 11 11 11 11 12 12 13 13 13 13 12 12 11 9 7 6 5 5 5 5 6 6 6 6 6 5 6 9 4 3 4 4 4 4 5 4 3 8 5 6 4 5 5 2 5 7 4 2 3 3
5 5 5 6 5 5 5 7 9 9 9 10 11 12 11 11 10 11 11 10 9 8 8 9 10 11 11 11 10 11 11 11 11 12 12 12 12 12 13 13 13 13 13 13 13 14 14 14 13 12 9 7 4 4 4 5 5 4 5 5 5 6 9 5 4 5 5 5 4 5 4 4 8 6 4 7 6 4 3 4 5 3 2 1 4
5 5 6 6 5 4 4 5 7 10 11 11 12 9 10 8 10 12 10 10 10 10 9 9 10 11 11 11 12 11 12 12 12 12 13 12 13 13 13 14 14 13 14 14 14 15 15 14 14 13 12 10 6 4 3 4 4 3 4 3 6 7 10 7 4 4 4 5 4 4 4 3 8 8 6 5 4 3 2 2 4 3 1 1 3
4 4 5 3 3 3 2 4 2 5 6 8 11 11 11 12 10 9 10 11 10 9 10 11 11 11 13 13 13 13 13 14 13 13 13 13 13 13 13 14 14 14 14 15 14 15 15 14 14 14 13 12 11 8 6 5 4 3 3 4 6 10 10 8 5 4 5 4 4 3 3 7 9 8 6 5 4 4 4 4 4 3 2 2 3
3 3 3 4 4 4 5 5 6 7 7 6 5 8 14 12 8 8 11 11 10 10 11 11 11 12 14 14 14 14 14 14 14 14 13 13 13 13 14 14 14 15 15 15 15 15 14 14 14 14 13 12 12 11 10 8 5 4 4 6 9 11 11 6 4 4 4 3 3 4 4 9 9 9 8 6 6 7 6 5 4 4 3 2 2
3 3 4 4 4 4 4 5 6 5 2 4 4 4 9 10 7 9 12 13 13 12 13 13 13 14 14 14 14 10 11 10 14 10 13 14 14 12 15 15 15 15 15 15 15 15 15 14 14 14 13 13 12 12 12 11 8 5 7 9 12 10 6 4 5 4 3 4 4 3 6 9 10 10 10 10 10 10 10 7 5 4 3 2 3
3 4 5 5 4 4 5 5 4 3 4 3 3 3 8 11 9 12 13 14 13 14 13 12 11 11 10 11 10 8 7 6 7 7 11 9 14 15 15 15 16 15 15 15 16 16 15 15 14 14 14 14 12 12 13 12 11 6 10 14 11 6 4 5 4 3 4 3 4 3 10 9 10 10 10 11 11 11 10 10 7 6 5 3 5
3 3 4 3 4 4 4 4 4 3 5 5 5 5 5 8 7 5 5 8 10 11 9 7 8 6 10 8 7 6 6 6 6 8 7 8 10 16 15 15 16 16 15 15 15 15 15 15 14 14 14 13 13 8 7 10 13 10 13 13 7 5 6 5 4 4 4 3 3 6 10 10 10 10 11 11 11 10 10 11 10 9 9 8 8
3 4 4 5 4 3 4 3 2 4 7 6 5 5 6 5 6 6 5 8 8 7 6 6 6 6 6 6 6 6 6 6 6 8 8 13 12 16 16 16 16 16 15 14 14 15 14 14 14 13 13 13 8 6 6 7 7 10 9 6 6 5 5 6 4 3 4 3 3 8 9 10 11 11 12 12 12 11 11 12 12 11 10 9 9
3 3 2 2 4 4 4 4 5 5 7 6 6 5 4 5 5 5 5 5 6 6 6 6 6 6 6 6 6 5 6 6 9 12 10 7 8 13 16 15 14 15 16 10 12 13 13 13 13 13 9 6 6 6 5 5 6 5 5 4 5 4 5 5 4 4 3 3 3 8 9 11 12 13 13 12 12 12 12 12 14 13 13 12 12
4 3 3 4 4 4 5 6 6 6 7 6 5 4 4 5 5 5 5 5 5 6 5 6 6 6 5 5 5 5 6 6 6 6 6 6 7 7 7 7 7 8 12 7 7 7 8 8 7 8 7 7 7 7 6 6 5 6 5 4 4 4 5 5 4 3 3 3 3 8 10 11 12 12 12 12 12 12 12 12 12 13 13 13 12
1 1 3 4 4 5 6 5 7 6 6 6 5 4 5 6 5 4 5 5 5 6 5 5 5 5 4 4 5 6 6 6 6 6 7 6 7 7 7 6 7 7 7 6 6 7 6 6 7 7 6 5 6 6 7 6 6 5 5 5 4 4 4 4 3 3 3 3 4 8 9 10 10 11 11 13 13 14 13 13 13 13 13 15 15
1 2 2 2 4 5 5 6 6 6 6 5 5 5 5 4 5 5 6 5 5 6 6 5 5 5 5 4 6 5 6 6 6 6 7 6 7 6 6 6 7 7 6 6 7 6 6 6 6 6 6 7 7 7 8 7 6 5 5 5 5 4 3 3 3 3 3 4 5 13 8 7 8 9 10 11 13 14 13 13 13 13 14 15 15
3 2 3 4 5 5 4 6 6 6 5 5 6 6 4 5 5 5 6 5 6 6 5 5 5 6 5 5 4 5 5 6 6 7 6 6 6 6 6 7 6 6 6 5 7 6 6 6 6 7 7 7 7 7 7 7 7 6 6 6 5 4 4 3 2 3 6 7 8 17 21 19 13 11 12 12 12 13 13 13 13 13 14 14 15
3 2 3 6 5 4 5 6 5 5 5 5 6 5 4 5 5 6 6 5 5 5 4 5 6 5 5 5 5 6 6 6 6 5 6 7 6 7 6 6 6 7 6 6 7 6 7 6 7 7 6 7 7 8 6 7 7 6 6 6 5 6 6 6 6 7 8 7 7 11 20 20 20 19 19 19 18 17 14 13 13 13 13 14 14
2 3 6 5 5 4 5 5 5 6 5 6 5 5 4 6 5 5 3 4 5 4 4 6 5 5 6 5 5 6 6 6 6 6 7 6 6 6 7 6 6 6 7 7 6 6 6 6 7 7 7 7 7 7 6 7 8 6 6 6 6 6 6 6 7 7 7 7 7 8 18 19 21 21 21 20 18 16 17 13 13 13 13 13 14
4 6 5 5 4 5 5 4 5 5 5 6 5 5 4 5 5 4 5 5 4 5 5 5 6 5 5 5 6 5 5 6 6 6 6 6 6 6 6 6 7 7 6 6 5 6 6 6 7 6 6 6 6 5 6 7 7 8 7 8 7 7 7 7 8 9 9 7 7 7 11 20 20 21 20 20 20 18 16 16 13 14 13 12 13
6 5 4 4 6 5 5 4 5 5 6 6 5 5 5 4 4 5 5 4 4 5 5 5 5 5 5 5 5 6 6 6 6 6 6 6 6 6 6 7 6 6 6 6 6 6 6 6 6 6 6 5 6 7 7 8 8 7 8 9 8 9 8 8 9 10 9 8 8 8 8 10 18 20 20 20 19 19 18 18 18 16 15 16 15
3 5 5 4 5 5 6 4 5 5 7 6 5 4 4 4 5 5 4 4 5 5 6 5 5 4 5 5 5 5 5 6 6 6 6 6 6 7 7 7 6 6 6 6 7 6 7 7 7 6 7 6 8 8 6 8 9 8 8 9 9 10 8 9 8 9 10 9 8 8 8 8 9 15 19 19 20 19 18 18 17 16 16 15 15
5 4 5 5 3 4 4 5 6 7 6 5 5 5 4 4 4 5 5 5 6 6 5 4 4 5 5 5 5 6 6 5 6 6 6 6 6 7 6 6 6 6 6 7 7 6 7 8 6 6 7 7 7 6 7 9 7 7 9 8 9 8 7 10 8 8 8 9 7 8 7 7 7 8 9 17 20 20 20 19 18 18 18 19 19
5 4 6 5 4 5 4 5 4 5 5 5 6 5 3 4 5 6 6 5 5 5 5 5 5 5 5 6 5 5 6 6 5 6 6 6 6 6 7 6 5 6 6 6 6 6 7 7 6 7 6 7 7 6 7 7 8 9 8 7 8 7 9 9 8 10 10 8 9 8 7 8 7 7 9 8 13 21 22 24 24 23 23 22 22
6 5 5 5 6 5 5 7 5 6 5 5 4 5 4 4 5 5 6 4 5 5 5 5 5 5 5 6 5 5 5 6 6 6 7 6 6 6 6 6 6 6 6 7 6 7 6 7 7 6 7 7 7 8 6 8 8 8 8 8 8 7 8 7 8 10 8 8 8 8 8 8 8 9 10 8 8 13 23 22 23 23 22 22 22
5 6 6 6 6 5 5 7 7 7 6 5 5 4 4 5 5 5 4 5 6 5 5 4 5 5 5 6 4 5 6 6 6 6 7 6 6 6 6 6 6 6 6 6 6 6 6 6 7 6 5 5 7 7 7 7 8 8 8 9 8 8 9 7 8 7 7 10 8 8 8 8 10 12 8 8 8 8 16 23 22 23 23 23 22
4 4 4 7 7 5 5 6 6 6 5 5 4 4 4 4 5 5 4 6 5 5 4 5 5 5 5 5 5 5 6 6 6 6 7 6 6 6 6 7 6 7 7 6 6 6 6 6 7 7 6 6 6 6 7 6 7 7 8 8 8 8 8 8 8 8 8 10 9 9 8 7 9 9 8 8 9 8 8 15 20 21 23 23 23
4 4 5 5 6 6 5 5 7 6 5 5 4 3 4 4 4 5 6 5 5 5 5 6 5 5 6 5 6 6 6 6 6 6 7 6 6 6 7 7 6 6 7 7 7 6 7 7 7 7 6 6 5 5 4 5 7 7 8 8 8 9 7 8 7 7 8 9 10 9 8 8 8 9 8 8 8 8 9 8 9 9 11 23 22
4 5 6 5 6 6 5 4 5 6 4 3 4 6 6 5 4 4 5 5 5 5 5 5 4 6 5 6 6 6 6 6 6 6 7 6 6 6 6 6 6 6 7 8 7 7 7 8 8 7 7 6 6 5 5 5 7 8 8 7 8 9 11 9 10 10 8 9 7 7 8 8 7 8 9 8 7 8 8 8 9 9 8 15 22
3 5 6 6 6 8 8 7 4 6 6 5 4 4 4 3 3 3 2 2 2 3 5 5 5 5 6 6 6 6 6 7 6 7 7 6 6 5 6 6 6 6 7 7 6 7 6 5 5 6 8 9 8 6 5 3 5 8 6 7 8 8 10 11 11 10 10 7 6 7 7 8 8 8 7 6 8 8 7 8 8 7 9 7 11
2 3 7 6 7 5 8 6 2 3 6 5 4 3 2 3 3 2 3 3 4 4 3 5 4 5 6 6 5 6 7 7 6 6 6 6 6 6 6 6 6 6 6 6 7 7 7 7 5 7 7 8 7 6 6 2 2 3 4 3 4 4 7 9 10 10 9 8 7 8 8 9 9 8 6 7 7 7 8 7 6 7 7 7 7
5 4 3 5 6 6 5 7 6 5 4 3 4 4 2 2 3 2 2 2 2 2 2 2 3 7 6 6 5 6 7 6 6 6 6 6 6 6 6 6 7 6 7 8 7 8 7 7 7 5 6 5 6 7 9 6 2 1 1 3 1 1 0 5 6 8 8 8 7 9 9 9 10 8 6 7 6 6 6 6 7 6 6 7 7
4 3 4 5 4 6 5 5 6 3 4 3 3 4 5 4 4 5 3 4 3 2 4 4 6 7 7 5 6 5 6 6 6 7 6 6 6 7 6 6 6 6 6 7 7 8 7 7 7 6 3 8 7 7 8 7 4 1 1 2 1 1 2 5 3 2 4 7 9 8 7 7 8 8 7 7 7 6 5 5 6 6 6 7 7
5 5 5 6 5 7 7 7 6 6 4 4 4 5 6 5 4 4 4 4 3 4 4 5 5 4 4 6 5 4 6 7 7 7 6 7 6 6 6 6 6 5 5 6 6 6 6 6 6 6 7 5 6 6 8 8 10 7 3 3 2 3 0 2 2 2 3 4 7 8 7 6 7 7 7 6 5 6 5 4 5 5 5 5 6
5 5 5 5 6 5 5 4 4 4 4 4 4 4 4 6 4 5 4 4 4 2 4 3 4 4 4 2 5 5 6 7 6 6 6 6 7 6 6 6 6 6 6 6 6 7 8 7 6 5 7 6 6 7 7 7 8 10 9 6 2 3 1 2 1 1 2 1 2 4 7 5 4 6 6 6 6 5 5 5 4 6 5 6 6
6 4 3 4 3 5 6 5 6 5 3 4 3 4 5 4 4 5 5 5 5 1 1 1 4 4 4 5 4 5 6 7 6 6 6 5 6 6 6 6 6 6 5 6 6 7 6 6 5 7 6 4 5 7 5 3 5 8 7 7 8 6 3 3 3 1 2 2 1 3 3 6 2 4 6 7 6 5 5 6 6 7 5 5 6
5 4 4 3 5 4 6 6 4 5 4 5 4 4 6 4 5 4 4 5 4 3 3 4 3 4 6 5 5 5 6 6 6 6 5 5 5 6 6 6 6 6 5 6 6 5 6 5 6 6 5 5 6 7 7 5 6 3 4 6 7 7 7 7 4 3 2 2 4 3 1 7 3 2 5 7 6 4 5 4 6 7 6 8 8
5 6 5 5 4 3 4 4 6 4 4 5 5 4 5 5 5 5 3 2 2 1 2 3 5 4 6 4 6 5 5 5 5 5 5 5 5 5 6 7 6 5 5 5 5 6 7 7 7 7 7 7 6 5 7 6 6 4 3 5 5 6 6 6 5 4 4 3 3 5 8 2 1 1 3 4 5 3 4 5 8 7 7 7 7
6 5 4 4 4 4 5 5 5 4 4 5 4 4 3 4 5 4 5 3 2 3 4 5 5 4 6 5 4 5 5 5 5 5 5 5 6 5 6 7 6 5 4 5 5 6 6 6 6 6 6 8 6 6 7 6 6 6 6 4 5 4 5 5 6 4 4 5 2 4 6 9 8 4 4 8 8 6 5 5 6 5 6 6 7
4 4 4 5 4 5 5 6 5 4 4 5 5 4 4 4 5 5 5 5 3 4 4 4 5 5 5 4 4 4 4 5 4 3 5 5 5 4 5 6 5 4 5 5 5 5 4 5 5 6 7 7 6 6 7 5 5 5 5 5 5 5 5 5 3 3 3 2 2 2 4 4 5 7 3 6 5 4 2 4 5 4 7 7 7
Wind_Direction
307 18 324 81 100 93 90 104 102 93 89 100 96 87 85 84 82 79 77 75 71 72 72 71 67 68 65 59 61 67 70 66 58 58 63 57 47 53 65 61 54 49 55 62 68 68 69 63 59 55 52 54 51 48 43 41 43 47 45 44 41 31 20 17 11 15 21 29 26 34 31 31 28 54 62 61 58 123 172 168 164 134 107 108 108
217 304 339 286 111 108 119 114 101 107 111 102 92 86 86 81 78 72 70 70 69 67 67 64 67 66 67 64 61 68 64 66 70 73 70 66 54 56 66 68 56 50 47 48 45 55 61 64 52 48 34 47 42 44 44 43 35 29 33 30 27 24 22 13 5 356 359 4 357 9 16 28 21 34 85 46 64 70 133 139 129 108 97 138 139
65 12 5 298 126 125 117 113 120 112 100 94 87 86 80 81 77 77 71 71 70 71 66 65 61 65 69 66 67 64 59 57 61 56 45 68 71 63 61 57 59 58 63 47 43 59 49 61 61 53 25 30 29 38 37 38 32 22 22 23 17 15 15 13 6 358 352 348 347 350 21 10 9 14 53 84 71 85 101 120 128 122 141 139 153
51 8 24 10 107 120 119 107 94 87 85 76 74 70 67 65 70 69 73 71 71 71 72 70 70 66 65 68 67 67 71 69 61 59 57 64 75 67 55 57 60 59 57 46 53 48 48 54 55 51 39 32 25 27 32 32 28 22 19 16 12 8 6 6 5 3 1 358 22 53 25 356 341 328 201 119 81 97 114 116 121 129 131 119 119
41 15 353 24 13 66 77 83 73 68 69 64 70 71 69 69 69 73 73 72 66 68 67 66 67 70 69 67 66 67 67 66 69 68 63 60 67 69 70 57 56 63 65 59 55 72 72 66 73 56 42 39 35 36 35 31 28 26 20 13 8 7 7 6 7 15 25 50 53 51 32 353 334 318 267 152 123 118 119 122 119 116 121 123 123
25 19 14 28 36 63 64 68 74 55 36 81 73 82 82 83 85 82 77 73 68 67 68 72 71 67 69 67 67 65 65 64 62 59 56 54 62 68 68 72 78 67 54 68 61 63 69 67 63 59 52 44 43 42 37 34 27 27 22 18 16 14 6 6 8 12 35 56 53 47 21 11 320 303 293 179 160 139 130 118 108 109 107 109 106
39 21 18 36 43 54 61 59 57 69 101 80 101 99 93 86 79 77 74 72 67 67 66 66 66 66 66 72 68 66 66 65 64 61 57 53 50 52 56 58 62 68 72 61 53 48 45 44 47 50 45 43 42 40 34 35 27 25 23 22 20 14 8 8 13 16 45 55 47 45 347 358 262 263 290 229 179 154 123 103 97 98 99 81 83
40 37 13 33 57 55 51 47 47 73 80 101 89 89 85 82 81 81 79 74 74 72 70 69 70 77 74 66 74 72 69 65 63 59 57 55 51 49 52 56 56 54 52 47 44 39 35 34 37 42 43 39 37 33 28 23 26 27 25 25 23 19 17 18 20 30 32 48 53 36 329 283 108 326 301 213 186 178 92 67 70 60 52 53 49
39 39 341 52 67 73 59 80 100 100 89 78 86 78 77 74 75 74 75 82 81 77 74 72 72 70 72 74 68 68 67 64 61 59 57 54 52 48 45 48 49 50 45 44 40 43 43 39 36 32 33 36 32 28 21 17 17 22 25 27 24 26 31 26 23 33 34 32 30 356 279 288 286 8 340 23 331 54 33 28 24 4 20 79 198
24 29 39 54 60 47 43 64 82 101 97 86 82 85 83 78 74 78 83 82 77 73 73 75 74 72 70 67 67 65 62 61 58 57 54 52 51 48 41 38 39 41 41 40 42 43 44 45 41 36 33 31 28 25 18 14 14 18 25 26 26 29 38 33 35 32 30 29 21 335 313 200 0 19 2 29 25 33 43 47 63 287 136 320 22
31 17 26 70 72 92 84 86 99 85 81 80 76 76 80 84 84 83 85 84 83 77 70 74 75 74 71 67 63 61 59 58 56 53 52 52 50 48 43 41 38 34 31 32 34 36 38 39 41 42 38 35 26 24 23 19 16 20 25 25 25 29 37 45 42 24 31 28 27 14 7 39 21 12 33 32 25 52 59 81 62 15 11 11 4
39 29 34 41 85 115 123 112 83 74 69 69 68 73 77 78 84 83 78 79 79 80 78 78 79 76 72 69 65 62 60 59 56 55 54 53 49 44 42 37 30 26 23 22 25 29 30 34 35 39 41 39 34 28 26 25 26 28 30 26 25 31 38 49 51 36 31 25 23 25 25 27 33 43 43 4 47 61 49 43 21 30 25 12 20
35 35 26 23 13 96 84 74 72 71 66 72 74 79 81 84 81 77 75 74 74 76 80 78 79 74 68 65 63 62 58 54 53 51 51 49 44 39 34 29 26 27 26 24 23 25 26 27 27 33 33 36 33 29 33 34 30 35 35 32 19 27 36 55 49 45 34 24 25 24 30 27 52 72 112 16 32 52 37 44 32 30 17 348 356
47 33 33 28 13 70 79 74 74 77 81 76 76 74 78 80 77 72 76 74 76 80 79 79 76 71 68 64 63 58 54 51 51 52 49 42 37 36 34 35 38 38 38 36 36 32 29 26 26 28 30 28 29 36 36 39 39 37 39 48 24 14 51 46 52 38 33 23 20 26 26 26 62 94 98 68 48 59 71 66 43 67 303 356 0
52 41 41 41 36 32 62 73 79 84 92 95 94 85 73 68 69 71 70 74 73 75 75 73 72 70 64 61 58 56 54 52 51 53 48 42 42 42 44 41 37 36 37 37 36 38 36 33 29 26 25 20 21 30 41 53 46 48 42 50 41 13 67 62 53 42 22 28 20 33 33 35 61 84 78 65 49 46 23 70 45 43 20 21 15
64 56 52 44 39 31 27 64 68 72 75 77 70 66 72 72 79 79 79 74 70 68 66 62 62 59 55 54 52 50 52 54 56 55 51 52 50 46 43 40 37 35 33 33 33 32 32 32 32 32 28 23 15 24 39 51 53 54 52 57 44 36 62 77 53 41 33 30 30 34 30 20 49 81 82 69 58 41 65 109 115 133 300 5 47
51 45 53 32 43 34 29 33 48 63 63 48 66 53 57 75 70 75 76 74 70 67 64 58 57 60 55 51 51 54 59 67 70 63 60 55 48 43 42 40 37 35 32 30 31 31 30 29 29 31 29 27 27 30 48 57 59 66 71 50 55 49 63 70 57 40 33 33 22 17 14 14 41 61 68 59 72 66 32 51 84 106 113 29 83
46 39 62 70 44 55 25 75 30 48 52 54 57 66 54 53 54 74 78 77 69 61 59 62 63 56 51 55 58 59 66 75 72 66 61 54 47 43 41 41 37 35 31 27 26 29 29 27 27 31 31 26 25 36 46 58 68 74 85 75 59 68 68 68 66 58 52 38 26 16 349 41 40 47 59 65 45 65 51 62 70 91 84 95 105
59 55 57 47 37 37 42 35 43 50 39 52 39 54 73 53 43 54 73 78 73 71 70 64 61 62 64 63 59 56 53 56 58 59 55 55 52 44 41 39 39 35 31 27 25 28 28 27 27 28 32 29 23 27 37 45 62 93 98 95 81 78 69 62 64 64 56 38 24 18 4 37 37 47 49 72 74 70 62 67 73 66 88 56 50
45 42 41 36 35 49 50 48 54 58 76 66 65 65 83 97 98 81 72 71 69 65 62 60 64 68 66 62 59 49 42 40 47 42 51 50 50 48 43 39 36 34 32 29 27 27 28 29 27 29 31 29 26 25 27 30 37 74 108 102 87 77 67 66 54 52 44 40 36 7 37 40 41 44 45 49 52 59 64 63 57 56 75 65 43
24 31 37 20 34 48 54 55 46 55 67 69 54 38 62 56 44 55 62 66 67 65 61 58 56 58 58 52 47 45 40 38 34 35 39 37 44 43 41 39 36 33 30 29 28 26 27 29 29 28 29 28 25 25 21 22 28 44 107 98 88 78 81 71 63 55 49 37 30 6 52 52 51 51 52 53 51 52 52 56 60 49 38 38 25
15 23 33 36 40 32 58 68 38 29 77 70 59 58 50 55 49 36 45 51 58 58 54 52 55 48 52 48 42 40 36 34 34 42 34 34 33 39 37 36 36 34 30 30 29 28 26 30 30 27 29 29 27 25 13 14 25 64 97 93 85 90 81 86 73 58 48 29 33 62 62 62 61 57 58 58 55 49 49 51 60 53 44 36 25
44 32 27 28 24 27 47 60 82 81 78 70 64 60 54 56 49 43 38 47 52 54 51 53 51 53 51 47 49 46 42 36 44 47 45 37 35 35 33 30 30 31 27 26 25 26 23 27 30 27 29 27 27 25 19 19 18 37 55 75 86 93 98 90 81 62 49 34 25 72 74 74 70 69 65 63 62 58 54 53 52 56 54 46 42
35 23 1 42 33 37 47 59 68 72 82 79 71 61 59 63 54 43 46 48 46 48 49 53 50 48 49 51 48 53 51 43 41 39 36 29 25 26 26 24 21 23 24 22 18 20 21 24 26 27 26 20 19 25 26 24 30 27 25 42 80 88 98 91 70 63 48 26 34 73 73 67 66 65 65 64 61 61 61 59 59 62 59 57 59
42 313 43 28 24 36 71 63 64 64 84 84 85 73 69 68 55 48 53 45 50 43 42 43 42 45 43 56 53 57 50 48 43 39 33 27 30 26 18 17 13 19 14 19 17 12 19 19 16 21 23 15 20 19 20 31 31 30 35 26 61 64 73 81 81 72 50 27 36 69 67 68 68 66 62 58 54 53 57 59 61 61 62 67 76
7 347 22 19 25 66 75 79 70 70 86 100 94 84 68 61 55 49 59 39 46 49 42 38 35 33 38 51 65 56 51 49 42 36 34 27 33 22 21 15 21 17 11 12 18 18 18 21 22 24 14 15 27 24 24 27 26 36 38 50 43 44 65 81 74 76 55 23 33 64 70 80 76 68 61 54 51 49 51 53 58 58 59 60 63
167 62 355 37 76 73 76 83 85 86 82 90 84 72 62 59 68 68 65 40 40 50 37 36 37 37 39 38 62 52 52 51 41 36 36 27 34 22 19 20 20 16 8 12 18 16 18 22 27 22 14 20 24 21 24 24 23 26 48 51 46 42 43 72 68 76 68 37 25 35 45 72 81 71 64 59 54 54 55 55 55 57 57 57 61
89 21 31 77 82 78 82 87 85 89 88 82 82 72 61 62 53 53 55 54 54 48 46 42 45 43 39 38 47 57 54 51 41 40 30 37 28 25 20 24 17 15 358 22 20 14 17 23 27 25 18 20 21 18 18 23 20 19 49 47 42 33 29 23 44 44 37 31 31 29 30 20 25 40 43 44 46 50 51 55 55 54 51 52 55
73 75 87 83 81 88 82 83 87 86 84 85 82 80 70 63 50 52 48 49 54 51 60 52 48 45 44 42 49 55 52 52 50 36 44 38 27 26 25 19 19 14 4 19 25 11 20 21 27 25 22 24 23 21 13 27 27 21 32 48 33 34 27 28 30 35 38 36 29 28 38 42 43 43 43 39 36 36 50 54 50 50 49 49 50
96 96 86 86 86 80 81 88 93 95 96 85 82 76 65 70 51 53 49 51 46 53 58 52 45 50 42 42 48 65 60 64 58 40 52 38 31 28 29 15 22 13 12 20 6 17 21 24 26 26 22 21 27 14 18 29 33 27 29 48 38 35 38 36 38 39 37 33 30 27 37 46 44 42 39 36 38 39 30 37 52 47 49 48 43
103 95 96 97 97 93 80 87 94 99 93 91 87 83 71 69 57 53 46 42 35 59 55 58 51 48 42 43 45 48 62 54 57 49 51 43 35 33 26 16 25 12 9 13 4 20 21 33 30 26 25 22 28 18 23 37 33 31 30 44 41 44 45 43 47 44 44 37 40 35 33 37 40 40 39 38 38 42 41 32 43 43 36 39 38
114 111 112 115 98 92 95 89 100 105 100 92 91 87 76 72 61 53 41 25 56 65 61 56 52 40 36 46 48 46 57 57 59 53 53 46 38 36 26 28 16 6 12 13 16 16 26 27 29 33 27 31 36 36 31 48 43 32 36 42 44 50 45 48 49 49 49 47 43 42 39 32 32 36 37 39 39 38 42 43 42 45 37 31 34
87 121 122 102 99 102 96 86 96 94 98 103 101 94 80 65 59 52 37 39 59 61 53 45 46 40 51 55 55 56 50 61 60 58 55 54 44 36 30 25 11 4 11 14 23 21 25 26 30 21 35 33 42 34 38 52 49 39 42 43 50 51 48 53 50 48 48 47 44 43 41 33 28 29 30 36 37 38 39 42 44 42 37 33 30
124 117 110 98 98 90 97 98 92 97 103 108 97 83 70 72 63 51 44 48 51 58 45 41 46 45 55 49 53 54 54 51 64 61 54 54 47 41 33 22 8 7 14 19 27 25 31 31 19 30 29 37 39 28 46 54 49 49 47 45 54 48 54 57 52 52 50 47 43 45 39 36 31 29 24 28 33 40 40 42 48 48 45 41 37
118 121 116 116 92 90 96 85 94 91 92 83 80 77 64 66 63 54 51 59 57 55 34 38 42 33 49 42 43 56 54 57 56 71 57 53 50 39 30 18 13 16 23 17 25 28 36 39 22 31 33 38 36 37 43 59 57 52 46 49 54 52 54 56 52 52 50 46 47 41 38 37 32 34 30 27 23 38 43 44 45 46 46 42 41
135 134 115 100 84 78 92 102 96 97 85 84 78 76 68 55 51 61 60 57 67 58 42 44 46 45 47 49 38 53 56 57 58 64 67 53 52 46 24 18 22 25 25 19 26 25 23 41 34 33 49 35 32 43 36 61 60 58 50 54 52 49 56 51 48 53 48 49 45 41 38 37 39 39 40 32 25 28 39 40 42 43 42 39 36
138 131 125 106 99 99 102 107 110 109 98 82 74 65 59 61 64 71 76 58 48 37 32 37 45 43 40 52 40 56 55 58 60 62 71 58 52 47 24 24 24 34 29 23 30 20 24 35 38 35 42 59 45 51 47 57 67 65 58 56 50 52 53 47 50 48 50 52 46 41 39 37 43 43 37 38 33 25 31 36 35 35 36 34 32
128 120 117 119 121 115 108 109 108 103 106 101 87 80 74 71 65 56 57 51 41 41 38 49 46 40 46 47 46 57 55 58 59 62 71 65 58 50 34 25 26 31 33 30 26 20 29 33 41 28 30 49 48 45 57 62 72 72 64 56 53 56 55 52 52 49 46 51 48 43 39 37 41 36 38 39 38 33 30 30 31 28 27 29 27
120 114 106 108 110 111 107 112 114 111 105 111 117 103 94 79 70 54 50 37 26 40 41 52 33 41 46 42 49 55 61 58 60 63 71 61 54 44 40 23 29 32 32 30 26 18 27 29 42 29 29 51 62 39 42 75 75 74 67 59 59 56 56 55 52 51 47 45 48 46 43 38 38 38 36 40 40 38 35 31 29 26 19 23 23
122 116 112 104 105 102 102 101 118 121 113 96 85 70 59 55 54 17 33 16 11 29 38 48 33 47 39 44 51 58 61 64 60 64 69 62 58 48 43 28 29 36 38 35 22 21 17 26 27 33 31 47 44 31 26 57 79 68 72 60 56 61 58 54 52 49 47 44 41 41 43 40 39 36 37 37 40 41 39 35 34 26 23 19 21
115 136 127 123 129 138 130 132 156 136 125 114 104 109 92 55 48 57 73 343 4 39 48 30 50 50 47 48 54 60 65 65 60 63 62 66 61 53 48 36 30 37 40 38 28 26 23 22 25 34 41 51 31 10 15 347 93 79 64 68 61 52 65 58 54 48 44 39 39 41 40 41 36 35 33 32 39 42 42 37 34 30 26 19 15
158 161 140 146 138 148 137 145 164 143 139 149 140 109 143 157 148 129 107 24 25 33 22 27 48 53 48 47 54 67 68 66 66 67 67 69 65 55 49 38 34 36 42 33 37 34 26 23 5 48 33 59 50 14 356 13 39 129 141 105 84 57 66 58 54 48 44 40 35 44 38 37 35 30 27 35 36 38 43 40 37 34 29 25 18
157 143 118 114 126 137 147 147 160 164 154 146 126 133 106 92 110 177 128 86 49 154 124 59 64 65 50 48 55 64 72 67 65 72 74 65 69 67 54 49 40 37 38 34 32 35 28 23 20 46 49 42 68 34 25 23 119 50 152 103 8 70 108 34 52 45 42 41 39 44 39 39 33 30 23 31 32 29 33 35 36 33 30 24 18
140 124 132 132 142 143 152 155 163 164 153 157 132 109 107 102 84 117 82 105 105 81 83 67 63 59 49 48 49 58 72 75 69 72 73 71 71 73 67 55 48 41 46 45 35 37 28 27 21 27 29 67 31 36 30 31 57 124 28 28 143 124 79 20 12 28 21 45 45 42 41 37 35 29 24 29 22 22 25 28 30 29 25 22 15
165 163 165 154 159 159 163 167 168 175 170 159 140 125 100 73 78 68 59 49 38 35 54 48 46 69 67 46 36 49 69 73 69 71 78 77 73 75 73 66 62 47 50 51 48 42 40 36 30 41 33 77 69 55 37 31 42 31 120 116 22 36 286 273 8 322 350 42 46 45 41 38 36 34 27 24 13 19 15 17 25 22 25 20 13
176 187 178 162 140 144 149 175 165 158 166 146 152 130 116 121 100 97 80 68 66 47 91 88 56 48 70 57 52 45 69 74 68 72 76 81 79 79 80 76 68 56 52 53 46 41 36 41 24 48 54 29 92 73 65 39 43 43 49 71 112 139 266 273 103 213 323 67 35 56 40 29 31 37 31 22 16 11 15 10 13 12 19 20 7
195 176 175 158 145 155 150 166 171 164 148 141 155 127 105 107 127 140 144 144 130 240 210 123 96 70 81 74 67 56 61 78 71 73 77 82 86 83 85 82 73 64 55 54 47 40 37 38 36 46 42 53 55 79 54 20 40 42 40 51 61 52 41 81 58 254 7 320 358 359 32 13 22 39 34 18 10 7 12 14 13 13 16 16 0
173 164 167 159 151 169 147 155 168 160 162 146 152 145 131 124 115 115 125 140 155 171 116 102 105 101 81 68 70 60 59 67 79 75 82 89 91 83 85 79 75 68 67 56 56 44 49 39 46 46 53 50 54 78 77 27 72 55 37 53 56 55 48 52 51 90 134 300 315 349 96 355 333 72 38 18 0 360 14 358 15 20 23 12 2
165 170 177 178 160 155 136 137 150 155 160 164 154 147 142 150 144 133 110 116 144 100 99 93 93 90 89 69 75 67 66 62 64 75 73 79 86 90 86 82 75 69 72 63 56 54 57 61 53 50 52 45 51 62 74 53 52 58 49 39 53 52 46 47 50 51 65 22 296 358 330 318 247 176 7 8 355 355 18 21 18 20 14 3 350
183 177 170 146 142 140 145 142 149 157 162 168 154 142 141 138 129 135 136 141 96 75 98 98 91 97 95 83 84 76 75 70 61 64 80 79 85 84 83 85 86 82 75 80 74 67 62 65 69 76 67 69 45 59 73 63 56 43 44 51 52 27 41 41 34 26 38 56 10 333 340 337 335 321 354 360 348 356 8 21 13 17 5 357 353
182 171 162 158 152 153 154 155 160 151 162 164 155 161 152 171 147 152 150 152 145 124 109 95 102 94 104 96 91 92 77 78 74 64 77 83 86 86 93 89 78 80 80 77 70 78 79 85 82 80 76 83 74 75 77 68 71 67 60 60 70 61 71 70 52 38 72 45 349 303 314 314 294 309 337 346 320 345 2 21 16 15 5 1 356